sat.trackr.live / text

‹ back to catalog

STARLINK-11351 [DTC]

NORAD 61886 · 2024-204N

PAYLOAD ACTIVE UNKNOWN

§ Identity

Operator
Country
US
Launch date
2024-11-09
Launch site
AFWTR
Launch vehicle
Mass (kg)
RCS (m²)

Purposes: comms

External: N2YO · Heavens-Above · Gunter

§ Orbital elements

Epoch: 2026-05-24T19:22:48.405216Z

Period
91.74 min
Inclination
53.1579°
Eccentricity
0.0000841
Mean motion
15.69706326 rev/d
Perigee alt
359.2 km
Apogee alt
360.3 km
Semi-major
6,737.9 km
B*
7.8330e-6
RAAN
340.7430°
Arg perigee
82.8122°
Mean anomaly
277.2991°
Rev number
8,887

§ Raw data

STARLINK-11351 [DTC]1 61886U 24204N   26144.80750469  .00000361  00000+0  78330-5 0  99922 61886  53.1579 340.7430 0000841  82.8122 277.2991 15.69706326 88871

JSON: /api/v1/satellites/61886 · /tle

For live sub-satellite position, see the globe view (requires WebGL).

§ Visibility from observer

Set your observer location to see the next 7 days of passes ≥ 10°. The values pass through the URL so the page stays shareable.

No JS? Fill the form by hand. The geolocation button needs JavaScript.